Weather in Baratayevka

Russia / Novosibirsk Oblast     55°37′05″N   84°27′09″E
temp.,
°C
wind,
m/s
gust,
m/s
humid.,
%
clouds,
%
prec.,
mm/h
press.,
hPa
HPBL,
m
25 february, thu
thu2501:00−10ssw41495100 3.9 1009700
04:00−18wsw7168267 0.1 1012513
07:00−24sw499433 0.1 1015152
10:00−22ssw7139075 0.0 1017608
13:00−19sw8127946 0.0 10181139
16:00−19sw91387100 0.1 10181423
19:00−20sw61294100 0.1 1020937
22:00−21sw51292100 0.1 1021904
26 february, fri
fri2601:00−21ssw51195100 0.1 1021739
04:00−22sw61294100 0.1 1022729
07:00−22sw61194100 0.2 1024796
10:00−23sw71191100 0.1 10261057
13:00−23wsw81290100 0.2 1028950
16:00−23wsw81288100 0.1 10301023
19:00−26wsw61293100 0.2 1032655
22:00−29wsw51395100 0.0 1035390
27 february, sat
sat2701:00−29sw51195100 0.0 1036383
04:00−29sw51095100 0.0 1037402
07:00−28sw51096100 0.1 1037439
10:00−26sw61094100 0.1 1037509
13:00−24sw5892100 0.2 1037591
16:00−22sw5891100 0.1 1037625
19:00−25sw3696100 0.1 1037108
22:00−27sw349895 0.0 103867
28 february, sun
sun2801:00−28ssw369695 0.0 103992
04:00−29ssw349580 0.0 103860
07:00−30s349749 0.0 103841
10:00−26sse479454 0.0 1038172
13:00−20sse489353 0.0 1035343
16:00−14s488695 0.0 1032584
19:00−15sse499197 0.0 1029291
22:00−13sse61194100 0.3 1027473
1 march, mon
mon101:00−11sse61294100 1.3 1023692
04:00−10s61294100 1.1 1019672
07:00−9s51195100 2.1 1016648
10:00−7ssw71294100 1.1 1014724
13:00−4ssw71294100 2.2 1012831
16:00−2sw91595100 1.9 1011943
19:00−1sw91695100 2.8 1010856
22:00−1sw91593100 0.8 1011778